Flag for Germany Weather past 2 weeks in Vechta, Lower Saxony, Germany

41 °F

Partly sunny.

Feels Like: 39 °F
Forecast: 37 / 44 °F
Wind: 3 mph from East

Location: Bremen Airport

Current Time: Oct 13, 2015 at 7:26:46 PM

Latest Report: Oct 13, 2015 at 6:50 PM

Visibility: N/A

Pressure: 30.15 "Hg

Humidity: 81%

Dew point: 36 °F

Location of VechtaLocation

Historic Weather in Vechta — Graph


Vechta temperature yesterday

Maximum temperature yesterday: 46 °F (at 1:20 PM)
Minimum temperature yesterday: 34 °F (at 4:50 AM)
Average temperature yesterday: 40 °F

Past Weeks' High & Low Weather Summary

High64 °F (Oct 3, 2:20 PM)100% (Sep 28, 11:50 PM)30.72 "Hg (Sep 28, 11:50 PM)
Low34 °F (Oct 11, 6:50 AM)43% (Oct 11, 2:50 PM)29.65 "Hg (Oct 6, 9:50 AM)
Average51 °F82%30.18 "Hg
* Reported Sep 28 6:20 PM — Oct 13 6:20 PM, Vechta, Weather by CustomWeather, © 2015

Note: Actual official high and low records may vary slightly from our data, if they occured in-between our weather recording intervals... More about our weather records


Vechta weather history for previous 24 hours

Time TempWeatherWind HumidityBarometerVisibility
6:20 PM
Tue, Oct 13
43 °FPartly sunny.6 mph71%30.15 "HgN/A
5:50 PM43 °FPartly sunny.7 mph71%30.15 "HgN/A
5:20 PM45 °FBroken clouds.9 mph66%30.15 "HgN/A
4:50 PM45 °FPartly sunny.9 mph66%30.15 "HgN/A
4:20 PM45 °FPartly sunny.12 mph66%30.15 "HgN/A
3:50 PM45 °FBroken clouds.10 mph66%30.15 "HgN/A
3:20 PM43 °FPartly sunny.13 mph66%30.15 "HgN/A
2:50 PM43 °FPartly sunny.14 mph71%30.15 "HgN/A
2:20 PM45 °FPartly sunny.13 mph66%30.15 "HgN/A
1:50 PM45 °FPassing clouds.13 mph66%30.15 "HgN/A
1:20 PM43 °FPassing clouds.14 mph66%30.18 "HgN/A
12:50 PM43 °FPassing clouds.15 mph71%30.18 "HgN/A
12:20 PM43 °FScattered clouds.15 mph71%30.18 "HgN/A
11:50 AM43 °FPartly sunny.14 mph66%30.18 "HgN/A
11:20 AM41 °FPartly sunny.12 mph70%30.18 "HgN/A
10:50 AM39 °FPartly sunny.10 mph81%30.18 "HgN/A
10:20 AM37 °FPartly sunny.8 mph87%30.18 "HgN/A
9:50 AM37 °FPartly sunny.8 mph81%30.18 "HgN/A
9:20 AM36 °FPartly sunny.9 mph87%30.18 "HgN/A
8:50 AM36 °FPartly sunny.9 mph87%30.15 "HgN/A
8:20 AM36 °FPassing clouds.10 mph87%30.15 "HgN/A
7:50 AM36 °FPassing clouds.9 mph87%30.15 "HgN/A
7:20 AM34 °FPassing clouds.9 mph87%30.15 "HgN/A
6:50 AM34 °FClear.10 mph87%30.15 "Hg10 mi
6:20 AM34 °FClear.9 mph87%30.15 "Hg10 mi
5:50 AM34 °FClear.8 mph87%30.12 "Hg10 mi
5:20 AM36 °FClear.10 mph81%30.12 "Hg10 mi
4:50 AM36 °FClear.12 mph81%30.12 "Hg10 mi
4:20 AM36 °FClear.12 mph81%30.12 "Hg10 mi
3:50 AM36 °FClear.12 mph81%30.12 "Hg10 mi
3:20 AM36 °FClear.10 mph81%30.12 "Hg10 mi
2:50 AM36 °FClear.9 mph81%30.12 "Hg10 mi
2:20 AM36 °FChilly.10 mph81%30.12 "HgN/A
1:50 AM37 °FClear.10 mph81%30.12 "Hg10 mi
1:20 AM37 °FClear.9 mph81%30.12 "Hg10 mi
12:50 AM37 °FClear.9 mph81%30.12 "Hg10 mi
12:20 AM37 °FClear.9 mph75%30.12 "Hg10 mi
11:50 PM
Mon, Oct 12
37 °FClear.9 mph81%30.12 "Hg10 mi
11:20 PM37 °FClear.8 mph81%30.15 "Hg10 mi
10:50 PM37 °FClear.8 mph81%30.15 "Hg10 mi
10:20 PM39 °FClear.8 mph75%30.15 "Hg10 mi
9:50 PM39 °FClear.8 mph75%30.15 "Hg10 mi
9:20 PM39 °FClear.8 mph75%30.15 "Hg10 mi
8:50 PM41 °FClear.9 mph70%30.15 "Hg10 mi
8:20 PM41 °FClear.9 mph70%30.15 "Hg10 mi
7:50 PM41 °FClear.8 mph70%30.15 "Hg10 mi
7:20 PM43 °FSunny.9 mph61%30.15 "Hg10 mi
Weather by CustomWeather, © 2015

See weather overviewHow to use our weather pages